Back to catalog

ATLAS 5 CENTAUR R/B

AliveLEO
NORAD 31702·ROCKET BODY·🇺🇸 United States

Launched Jun 15, 2007 from Cape Canaveral Space Force Station

Loading…

Next Passes (next 24 hours)

TLE

FreshSource: Space-Track

Epoch: Sep 14, 2026, 14:16 UTC

1 31702U 07027B   26257.59502281  .00010103  00000-0  37959-3 0  9994
2 31702  63.3061 311.6387 0492399  45.3068 318.7040 14.58033471123831

Track ATLAS 5 CENTAUR R/B in real time with AllMySat

Download on the App Store